Location: Kumla
(59.1265°N, 15.1401°E)
Time: 23:53:21
(UTC+01:00)

Vanguard 1 - Pass Details

Date: 03 December 2023
Orbit: 653 x 3825 km, 34.3° (Epoch: 04 March)

Event Time Altitude Azimuth Distance (km) Brightness Sun altitude
Rises 19:32:51 0° 232° (SW) 6,515 14.8 -32.1°
Reaches altitude 10° 19:37:23 10° 223° (SW) 5,890 14.3 -32.6°
Maximum altitude 19:53:24 33° 169° (S) 5,099 13.4 -34.6°
Enters shadow 19:58:12 30° 151° (SSE) 5,336 13.3 -35.2°
